Regional Weather Roundup
Issued by NWS

Home | Current Version | Previous Version | Text Only | Print | Product List | Glossary Off
Versions: 1 2 3 4 5 6 7 8 9 10 11 12 13 14 15 16 17 18 19 20 21 22 23 24 25 26 27 28 29 30 31 32 33 34 35 36 37 38 39 40 41 42 43 44 45 46 47 48 49 50

000
ASUS43 KMKX 011821
RWRWI

WISCONSIN REGIONAL WEATHER ROUNDUP
NATIONAL WEATHER SERVICE MILWAUKEE/SULLIVAN WI
100 PM CDT SAT AUG 01 2015

NOTE: "FAIR" INDICATES FEW OR NO CLOUDS BELOW 12,000 FEET WITH NO
SIGNIFICANT WEATHER AND/OR OBSTRUCTIONS TO VISIBILITY.

WIZ001-002-006>008-014>016-023>028-011900-
NORTHWEST WISCONSIN

CITY           SKY/WX    TMP DP  RH WIND       PRES   REMARKS
SUPERIOR ARPT  MOSUNNY   80  54  40 NW12      29.88F HX  80
6HR MIN TEMP:  54; 6HR MAX TEMP:  80;

ASHLAND        SUNNY     80  52  37 NW9G17    29.89F HX  80
6HR MIN TEMP:  57; 6HR MAX TEMP:  80;

HAYWARD        MOSUNNY   79  50  36 W8        29.93F
6HR MIN TEMP:  53; 6HR MAX TEMP:  79;

SIREN          MOSUNNY   79  51  37 W9G17     29.94F
6HR MIN TEMP:  53; 6HR MAX TEMP:  79;

CUMBERLAND     MOSUNNY   75  50  41 W9G18     29.96S
RICE LAKE      SUNNY     77  53  43 SW8       29.97S
6HR MIN TEMP:  55; 6HR MAX TEMP:  77;

CHETEK         MOSUNNY   78  53  41 W6        29.95F
6HR MIN TEMP:  57; 6HR MAX TEMP:  79;

LADYSMITH      MOSUNNY   78  52  39 W10       29.96F
6HR MIN TEMP:  58; 6HR MAX TEMP:  78;

EAU CLAIRE     SUNNY     80  51  36 W10       29.95F HX  80
6HR MIN TEMP:  63; 6HR MAX TEMP:  81;

MENOMONIE      SUNNY     80  53  38 SW5       29.95F HX  80
6HR MIN TEMP:  61; 6HR MAX TEMP:  80;

NEW RICHMOND   SUNNY     79  51  37 W6        29.96F
6HR MIN TEMP:  60; 6HR MAX TEMP:  80;

OSCEOLA        SUNNY     80  54  40 W7        29.97F HX  80
6HR MIN TEMP:  59; 6HR MAX TEMP:  80;

$$

WIZ003>005-009-010-017-018-011900-
NORTH CENTRAL WISCONSIN

CITY           SKY/WX    TMP DP  RH WIND       PRES   REMARKS
MANITOWISH WTR PTSUNNY   74  51  43 NW9G17    29.92F
6HR MIN TEMP:  54; 6HR MAX TEMP:  75;

ARBOR VITAE    MOSUNNY   75  52  44 NW8       29.93S
6HR MIN TEMP:  59; 6HR MAX TEMP:  77;

WOODRUFF       MOSUNNY   75  52  44 NW8       29.93S
6HR MIN TEMP:  59; 6HR MAX TEMP:  77;

RHINELANDER    SUNNY     76  49  38 NW12G18   29.94F
6HR MIN TEMP:  57; 6HR MAX TEMP:  77;

EAGLE RIVER    MOSUNNY   74  47  38 W13G20    29.92F
6HR MIN TEMP:  56; 6HR MAX TEMP:  74;

LAND O LAKES   MOSUNNY   74  47  37 NW12G17   29.92F
6HR MIN TEMP:  57; 6HR MAX TEMP:  75;

PHILLIPS       PTSUNNY   76  52  43 W9G16     29.93F
6HR MIN TEMP:  55; 6HR MAX TEMP:  76;

TOMAHAWK       MOSUNNY   75  52  43 W9        29.95F
6HR MIN TEMP:  53; 6HR MAX TEMP:  75;

MEDFORD        MOSUNNY   75  52  43 W9G20     29.95F
6HR MIN TEMP:  56; 6HR MAX TEMP:  76;

MERRILL        NOT AVBL
$$

WIZ029-030-035-036-043>047-011900-
CENTRAL WISCONSIN

CITY           SKY/WX    TMP DP  RH WIND       PRES   REMARKS
WAUSAU         MOSUNNY   80  46  30 NW13G21   29.93F
6HR MIN TEMP:  60; 6HR MAX TEMP:  80;

MOSINEE        MOSUNNY   77  48  36 NW12G17   29.96F
MARSHFIELD     SUNNY     79  50  36 W12G23    29.96F
6HR MIN TEMP:  61; 6HR MAX TEMP:  79;

STEVENS POINT  SUNNY     78  50  36 N9        29.95F
6HR MIN TEMP:  59; 6HR MAX TEMP:  78;

WAUPACA        SUNNY     83  46  26 W10G17    29.93F HX  81
6HR MIN TEMP:  64; 6HR MAX TEMP:  83;

WAUTOMA        MOSUNNY   83  49  30 W10G21    29.95F HX  81
6HR MIN TEMP:  62; 6HR MAX TEMP:  83;

WISC RAPIDS    SUNNY     80  49  33 NW8G18    29.96F
6HR MIN TEMP:  61; 6HR MAX TEMP:  82;

CAMP DOUGLAS   MOSUNNY   81  59  47 SW7       29.95F HX  81
$$

WIZ011>013-019>022-031-037>040-048>050-011900-
NORTHEAST WISCONSIN

CITY           SKY/WX    TMP DP  RH WIND       PRES   REMARKS
ANTIGO         MOSUNNY   76  51  40 W16       29.95S
SHAWANO        PTSUNNY   80  51  36 W10G17    29.92S HX  80
6HR MIN TEMP:  61; 6HR MAX TEMP:  80;

OCONTO         MOSUNNY   81  52  37 W9G17     29.89S HX  80
6HR MIN TEMP:  60; 6HR MAX TEMP:  81;

STURGEON BAY   SUNNY     77  52  41 W12       29.91F
6HR MIN TEMP:  61; 6HR MAX TEMP:  77;

GREEN BAY      SUNNY     80  54  40 W13       29.91F HX  80
6HR MIN TEMP:  61; 6HR MAX TEMP:  80;

MANITOWOC      SUNNY     80  49  33 MISG      29.91F
6HR MIN TEMP:  64; 6HR MAX TEMP:  81;

APPLETON       MOSUNNY   79  43  27 NW15G21   29.93F
CLINTONVILLE   SUNNY     81  43  26 NW17G24   29.91F
OSHKOSH        MOSUNNY   81  52  36 W12G22    29.92F HX  80
6HR MIN TEMP:  62; 6HR MAX TEMP:  81;

$$

WIZ032>034-041-042-053>061-011900-
SOUTHWEST WISCONSIN

CITY           SKY/WX    TMP DP  RH WIND       PRES   REMARKS
LA CROSSE      SUNNY     80  61  52 E3        29.95F HX  81
6HR MIN TEMP:  67; 6HR MAX TEMP:  83;

SPARTA         SUNNY     82  52  36 W7        29.96F HX  81
6HR MIN TEMP:  56; 6HR MAX TEMP:  82;

VIROQUA        MOSUNNY   80  65  60 W8        29.98S HX  81
6HR MIN TEMP:  63; 6HR MAX TEMP:  80;

BOSCOBEL       SUNNY     87  66  49 W10G18    29.95F HX  89
6HR MIN TEMP:  63; 6HR MAX TEMP:  88;

PRAIRIE DU CHI CLOUDY    83  62  49 W9        29.95F HX  83
6HR MIN TEMP:  61; 6HR MAX TEMP:  83;

PLATTEVILLE    MOSUNNY   83  66  55 W17       29.97F HX  85
6HR MIN TEMP:  62; 6HR MAX TEMP:  83;

$$

WIZ056-057-062-063-064-067-068-011900-
SOUTH CENTRAL WISCONSIN

CITY           SKY/WX    TMP DP  RH WIND       PRES   REMARKS
REEDSBURG      SUNNY     80  57  45 SW3       29.95F HX  81
6HR MIN TEMP:  57; 6HR MAX TEMP:  81;

BARABOO/DELLS  MOSUNNY   80  52  36 CALM      29.96F HX  80
6HR MIN TEMP:  60; 6HR MAX TEMP:  82;

LONE ROCK      PTSUNNY   83  63  50 W10       29.95F HX  84
6HR MIN TEMP:  57; 6HR MAX TEMP:  84;

MINERAL POINT  SUNNY     82  64  54 W14G20    29.97F HX  84
MADISON        PTSUNNY   80  60  50 NW7       29.95F HX  81
6HR MIN TEMP:  65; 6HR MAX TEMP:  81;

MIDDLETON      PTSUNNY   82  58  43 W6        29.96F HX  82
6HR MIN TEMP:  65; 6HR MAX TEMP:  84;

WATERTOWN      PTSUNNY   77  58  51 CALM      29.96F
6HR MIN TEMP:  59; 6HR MAX TEMP:  77;

MONROE         SUNNY     82  55  39 W17G26    29.96F HX  82
JANESVILLE     SUNNY     86  55  35 W12G22    29.95F HX  84
$$

WIZ051-052-058>065-066-070>072-011900-
SOUTHEAST WISCONSIN

CITY           SKY/WX    TMP DP  RH WIND       PRES   REMARKS
MILWAUKEE      PTSUNNY   79  49  34 W13       29.95F
6HR MIN TEMP:  68; 6HR MAX TEMP:  81; 6HR PCP: TRACE;

WAUKESHA       MOSUNNY   75  48  38 W5        29.98F
MILWAUKEE/TIMM PTSUNNY   82  46  28 NW12      29.95F HX  81
RACINE         PTSUNNY   77  55  46 VRB3      29.97F
6HR MIN TEMP:  64; 6HR MAX TEMP:  81; 6HR PCP:  0.02;

BURLINGTON     SUNNY     79  57  45 W6        29.96F HX  80
6HR MIN TEMP:  58; 6HR MAX TEMP:  80;

KENOSHA        MOSUNNY   81  59  47 W8        29.96F HX  81
6HR MIN TEMP:  63; 6HR MAX TEMP:  81; 6HR PCP: TRACE;

FOND DU LAC    SUNNY     82  53  36 NW10      29.94F HX  81
6HR MIN TEMP:  62; 6HR MAX TEMP:  82;

SHEBOYGAN      SUNNY     81  52  36 W9G20     29.92F HX  80
6HR MIN TEMP:  64; 6HR MAX TEMP:  81;

WEST BEND      MOSUNNY   79  46  31 W10G16    29.94F
JUNEAU         MOSUNNY   76  55  48 W8        29.97F
6HR MIN TEMP:  56; 6HR MAX TEMP:  77;

$$

LSZ147-162-011900-
LAKE SUPERIOR

STATION/POSITION TIME  TEMP    WIND        PRES    WAVE
                       AIR SEA DIR/SP/G            HT/PER
                 (UTC) (F)     (DEG/KT/KT) (MB)    (FT/S)
W MID LAKE BUOY  1750   58 54  220/ 12/ 14 1010.6F   2/ 4
DEVILS ISLAND    1800   68     230/ 11/ 14 1011.1F
PORT WING        1700   72     270/  8/ 11 1012.5F
SAXON HARBOR     1700   70                 1012.2
$$

LMZ867-665-643>646-011900-
LAKE MICHIGAN

STATION/POSITION TIME  TEMP    WIND        PRES    WAVE
                       AIR SEA DIR/SP/G            HT/PER
                 (UTC) (F)     (DEG/KT/KT) (MB)    (FT/S)
CHAMBERS ISLAND  1700   76     280/  3/  9 1011.9S



USA.gov is the U.S. government's official web portal to all federal, state and local government web resources and services.